Theta_e
299 300 301 303 301 301 302 304 304 304 304 305 305 306 307 308 309 310 310 311 313 316 316 318 319 320 321 322 321 321 321 320 321 320 321 321 320 319 319 318 318 318 317 317 317 318 317 318 318 318 317 317 317 316 316 317 317 316 315 316 315 316
301 301 301 300 301 301 301 301 301 301 303 303 303 304 305 306 308 309 309 310 311 313 315 316 318 319 320 321 321 321 320 321 321 320 320 320 320 320 319 318 318 317 317 317 317 317 317 317 317 317 317 317 317 317 316 316 316 316 315 316 316 316
300 299 297 298 298 297 298 300 301 302 302 302 303 303 304 304 306 307 308 309 310 310 311 313 315 317 319 319 320 320 320 321 319 320 321 320 319 319 319 318 318 318 317 317 316 317 317 316 316 317 317 316 316 317 317 316 316 315 316 315 315 316
297 296 296 295 294 298 299 300 300 301 302 303 302 302 303 304 305 306 307 308 309 309 310 311 313 315 317 317 318 318 319 320 320 320 319 319 320 319 319 318 318 318 318 317 317 316 317 317 317 316 316 316 316 316 316 316 315 315 315 315 315 316
295 296 295 296 296 297 298 298 299 301 301 302 302 302 303 304 305 306 306 306 307 308 309 309 310 312 313 314 316 316 318 318 319 319 319 319 319 318 319 319 318 318 317 317 317 317 316 316 316 316 316 316 315 315 315 316 315 315 314 315 315 315
292 292 295 297 298 297 298 299 299 300 300 300 300 300 301 302 303 304 304 305 305 306 306 307 308 308 310 311 313 314 315 317 317 317 317 318 318 318 317 318 318 317 317 316 316 316 316 316 316 315 315 316 315 315 315 315 315 315 315 315 315 315
293 296 296 297 297 297 297 298 298 298 298 297 298 298 299 300 300 300 301 300 302 301 302 303 303 304 306 308 310 311 312 311 311 310 314 315 315 316 315 314 315 316 316 316 315 315 315 315 315 315 315 315 315 315 315 315 314 314 314 314 315 309
294 294 294 296 296 296 297 297 296 296 295 295 294 295 295 295 292 294 295 295 296 298 296 297 296 300 303 304 305 306 305 305 305 309 310 311 315 314 314 314 312 313 315 315 315 315 315 315 314 314 315 315 314 314 314 314 313 313 313 313 314 314
297 298 297 295 295 293 296 295 296 293 292 293 292 290 290 291 288 289 289 290 290 292 292 292 293 294 295 296 298 298 299 301 302 303 307 305 309 311 311 310 311 310 312 314 314 314 314 314 313 314 314 314 314 314 313 313 313 312 313 313 313 314
296 296 297 297 298 297 295 295 293 293 291 292 291 288 287 289 287 287 287 288 289 290 291 290 289 290 291 292 292 294 295 296 297 300 301 299 305 307 308 309 310 309 308 311 312 313 313 312 312 312 313 313 313 312 312 312 311 312 312 312 313 313
296 296 297 298 297 297 297 297 297 293 291 289 288 287 287 286 286 286 286 286 287 288 288 286 286 288 288 288 289 290 292 294 294 295 298 298 302 304 305 307 308 307 307 307 308 309 309 310 311 311 310 311 311 312 312 313 312 312 312 312 312 313
296 296 297 297 298 299 299 298 297 295 294 294 290 287 287 285 286 286 286 286 287 286 286 285 285 286 286 287 288 289 289 290 291 292 294 297 298 300 300 301 303 305 306 306 305 305 307 308 310 304 303 304 310 312 313 313 312 312 311 311 311 311
299 299 299 298 298 299 299 299 297 293 291 290 290 289 287 285 286 286 286 287 286 285 285 285 286 286 286 287 286 286 287 289 290 290 291 293 295 296 297 298 301 301 301 303 304 304 304 306 307 301 302 302 303 309 313 313 313 312 311 311 310 310
298 298 298 298 298 298 298 297 295 291 292 291 288 287 285 284 285 286 285 285 284 284 285 285 285 286 288 288 289 289 289 290 290 292 293 294 294 295 293 296 299 301 299 300 300 301 302 302 299 301 302 302 302 301 309 313 313 312 312 311 310 310
297 298 298 298 298 298 297 295 292 292 292 289 287 284 284 285 284 285 286 286 285 285 284 284 285 287 287 288 289 290 290 290 292 292 293 294 294 293 296 299 299 300 299 299 301 301 301 301 299 298 299 299 300 300 301 310 312 312 311 310 310 310
297 297 297 297 297 294 293 289 289 290 285 284 284 283 284 284 284 284 284 284 284 284 284 284 284 284 286 287 288 288 289 290 292 292 292 292 292 294 296 295 296 297 297 298 299 299 299 299 297 297 297 297 298 299 299 306 309 310 310 310 310 309
296 296 295 295 294 292 289 289 287 286 285 284 284 283 284 284 283 283 283 283 283 283 283 284 284 285 285 284 286 288 289 289 290 290 291 291 294 295 296 296 295 297 297 297 298 299 299 301 296 296 297 297 297 298 298 304 306 306 307 308 308 308
293 294 294 292 288 289 285 287 284 284 286 284 284 284 283 283 283 282 282 283 283 283 283 283 283 284 284 284 285 286 287 288 288 290 289 289 290 291 291 292 293 295 295 295 295 295 296 295 294 294 295 295 297 296 298 299 300 301 300 301 302 302
290 291 288 287 284 284 284 282 282 283 284 283 282 283 283 282 282 281 282 282 283 283 283 283 283 284 284 284 284 284 285 286 287 287 287 289 288 289 289 290 290 290 291 290 292 293 294 292 290 292 293 293 295 294 294 295 296 296 296 297 298 299
286 284 283 284 283 281 281 281 282 282 282 282 282 281 282 282 282 282 282 283 282 283 283 282 283 283 283 283 284 283 283 283 284 285 286 288 288 288 288 289 289 289 289 289 289 289 290 291 289 290 291 292 293 292 293 293 294 294 294 294 296 296
282 282 281 282 282 282 281 281 283 282 282 281 281 281 281 282 282 282 282 283 282 283 282 282 282 282 283 283 283 283 283 283 283 283 285 287 287 287 287 287 287 287 287 287 287 286 288 288 287 289 290 291 292 291 291 291 291 292 292 293 292 292
282 281 281 281 281 282 281 281 281 281 281 281 281 281 282 282 282 282 282 281 281 282 282 282 282 282 282 282 282 283 283 283 284 284 284 285 286 285 285 286 286 286 286 285 285 286 287 287 287 287 289 289 290 291 289 289 290 289 289 289 290 290
281 281 282 282 282 281 281 281 281 281 281 281 281 282 282 282 281 282 282 282 282 282 282 282 282 282 282 281 282 283 283 283 283 283 283 283 282 282 282 282 283 284 283 282 282 283 284 285 285 285 287 288 289 290 290 289 289 289 289 289 289 289
281 281 282 281 282 282 282 282 282 282 281 282 282 282 282 282 281 281 281 281 282 282 282 282 282 281 281 280 281 282 283 282 283 283 282 281 282 283 283 282 282 283 283 282 282 283 284 284 284 283 285 288 289 290 291 288 287 289 289 288 288 289
281 281 281 282 281 282 282 282 282 282 282 282 283 284 284 284 283 283 282 282 282 282 283 283 283 283 283 283 283 284 284 283 284 284 285 285 285 285 285 285 285 285 285 285 285 286 286 286 285 285 285 287 288 290 290 290 288 290 289 288 287 288
280 281 281 282 282 282 282 282 282 282 283 283 284 285 285 285 285 284 283 283 284 284 284 284 285 285 284 284 285 286 286 285 285 286 286 286 286 286 286 286 286 286 286 286 286 286 286 286 286 286 286 286 287 289 290 290 290 291 287 287 287 288
280 281 281 281 281 282 282 282 282 282 283 284 285 285 285 285 285 285 285 285 285 285 285 285 284 284 285 285 286 285 285 285 286 286 286 286 286 285 284 284 284 285 285 285 285 285 286 286 286 286 286 286 286 288 289 288 288 288 289 287 287 287
280 280 280 280 280 281 281 281 282 281 282 284 284 285 285 285 285 284 284 284 285 285 285 285 285 285 285 285 285 285 285 285 285 285 285 285 285 285 284 284 284 284 284 284 285 285 285 285 285 286 286 285 285 285 286 287 286 285 285 285 285 285
280 279 279 279 279 279 280 280 281 282 282 282 284 285 285 285 284 284 284 284 284 284 284 284 284 284 285 285 285 285 285 285 285 285 285 285 285 285 285 285 285 285 285 285 285 285 285 285 285 285 285 285 285 285 285 285 285 285 285 285 285 285
279 279 279 279 279 278 279 279 280 280 281 282 283 284 285 284 284 284 283 283 283 283 283 283 283 283 284 284 284 284 285 285 285 285 284 284 284 284 284 285 284 284 284 284 284 285 285 285 285 285 285 285 285 285 285 285 286 286 285 285 286 286
278 278 279 279 278 277 277 277 277 278 279 280 281 283 284 284 284 283 283 283 283 282 283 282 282 283 283 283 283 284 284 284 284 285 285 285 285 285 285 285 284 284 284 284 284 284 283 284 284 284 285 285 286 285 285 285 285 285 286 286 288 286
278 278 279 278 277 277 276 276 276 276 277 278 279 280 282 282 283 282 282 282 281 282 281 281 281 282 282 282 282 282 283 284 285 284 284 284 285 285 285 285 284 284 284 284 284 285 284 283 284 286 286 286 285 286 286 286 286 287 286 287 288 286
279 279 279 278 277 276 275 274 274 274 275 275 277 278 279 281 281 281 281 281 281 281 281 281 281 281 281 281 281 282 281 282 284 284 284 284 284 284 285 285 285 285 285 284 283 284 285 285 285 285 285 284 285 285 285 286 287 287 287 288 286 285
279 279 278 277 276 275 274 273 272 272 272 273 274 276 277 278 279 279 279 279 279 279 279 280 280 280 280 280 281 281 281 280 281 282 283 283 284 284 284 284 284 284 284 284 284 284 283 284 284 284 284 283 284 284 285 286 287 287 288 289 289 285
278 278 277 275 274 273 272 270 270 270 270 271 272 274 275 275 276 276 276 276 277 277 278 277 277 277 278 278 278 279 279 279 279 278 279 281 283 283 283 283 283 282 283 283 283 283 282 282 282 282 283 283 284 284 284 285 286 287 288 288 285 284
276 276 274 273 273 272 270 269 268 268 268 269 270 271 272 273 273 274 274 274 275 275 275 275 275 276 276 277 277 277 277 277 278 278 278 277 278 279 281 282 281 281 281 282 282 281 281 281 281 281 282 282 282 283 283 284 284 285 286 285 283 283
275 275 274 273 272 271 269 267 267 267 267 267 268 269 270 270 271 272 272 273 273 273 274 274 274 274 274 275 275 275 275 275 276 277 276 276 276 276 276 277 277 279 280 279 279 280 280 280 280 281 281 281 281 282 282 282 281 280 280 281 281 282
274 273 273 272 271 270 268 266 266 266 266 266 267 268 268 268 269 269 270 270 271 271 272 272 272 272 273 273 273 274 274 274 274 275 275 275 275 275 275 275 275 276 277 278 278 278 279 279 279 280 280 280 280 281 281 277 277 278 278 279 280 280
Wind_Speed
8 7 9 10 6 6 8 10 9 8 8 9 9 13 14 14 12 11 11 10 10 11 14 15 15 15 15 14 14 13 13 15 13 13 14 12 11 11 12 11 11 11 11 12 12 12 13 13 13 12 12 12 12 12 13 13 12 12 12 13 13 12
11 11 9 6 7 7 7 7 6 8 10 9 10 10 10 11 12 11 12 12 11 13 12 12 13 13 14 14 13 14 15 15 14 14 12 14 12 11 11 11 10 12 12 11 12 12 12 12 12 12 12 12 12 12 12 12 13 13 14 14 12 10
9 6 5 6 6 6 6 7 8 9 8 8 9 10 11 10 10 9 11 11 11 12 13 13 10 13 12 13 14 14 14 14 13 13 13 10 11 11 11 11 12 12 12 12 12 13 12 12 12 11 11 12 13 12 13 12 12 14 13 13 14 12
6 5 5 5 4 6 7 8 6 8 8 8 8 8 9 9 10 8 10 9 10 10 11 11 10 11 11 12 12 14 14 13 13 13 11 12 12 10 13 12 12 11 12 12 13 13 13 12 13 12 11 12 13 14 12 12 13 13 14 13 14 13
6 6 6 7 6 7 7 8 7 8 8 9 8 8 11 7 10 8 8 8 8 10 10 9 10 9 10 12 12 12 14 13 13 11 11 12 11 10 11 12 12 12 12 12 12 12 12 13 13 12 12 13 14 15 14 13 13 14 14 14 15 13
5 5 6 8 7 6 7 7 7 8 7 8 8 10 11 9 8 8 7 7 9 8 7 8 7 7 9 10 11 11 12 12 11 9 11 11 9 11 10 10 11 10 11 12 12 12 12 12 12 12 12 13 14 14 15 13 13 13 14 14 14 13
7 7 7 8 8 7 7 8 7 6 7 6 8 9 8 8 7 7 7 6 8 7 7 7 6 6 8 9 9 10 10 7 7 6 9 9 9 10 7 8 8 10 11 12 12 13 13 13 12 13 12 12 12 14 13 13 13 13 14 14 13 13
7 7 8 8 8 8 7 8 7 7 6 8 6 8 8 8 5 5 6 5 6 6 6 5 5 6 7 7 7 7 6 6 6 6 7 7 9 8 8 9 9 10 11 12 12 12 12 12 12 12 13 13 12 12 12 12 12 12 12 12 12 12
11 9 7 6 6 6 7 7 8 7 7 8 7 6 6 7 6 5 5 6 5 5 5 4 3 4 4 5 5 5 5 5 5 6 7 6 8 8 9 9 10 9 10 11 11 12 12 11 11 11 11 11 11 12 12 12 12 11 11 11 12 12
9 9 9 10 10 7 6 7 8 7 7 8 7 6 5 6 5 5 4 4 6 6 6 4 3 3 4 4 4 4 4 4 5 6 6 5 7 8 8 8 9 8 8 10 10 11 10 10 10 10 10 10 10 10 11 11 12 11 11 11 11 11
8 9 10 11 10 11 12 11 10 7 7 6 6 6 6 4 5 5 3 3 5 6 4 4 4 3 3 3 3 4 4 4 4 5 5 5 6 7 7 7 7 7 8 8 8 8 7 9 10 9 9 10 10 10 11 12 12 12 12 12 12 11
10 10 11 12 14 15 15 13 10 8 8 10 7 5 7 3 6 5 3 3 4 4 4 4 3 3 3 3 4 4 3 3 4 4 4 5 5 5 5 6 6 7 8 8 8 7 7 8 8 10 15 13 10 10 10 10 11 11 11 11 11 11
14 16 15 15 15 14 14 13 9 7 8 8 8 7 5 3 6 5 4 4 4 3 3 3 3 3 4 4 3 3 2 2 2 3 4 4 5 5 5 6 7 7 6 7 7 7 8 7 7 12 13 14 16 12 10 11 11 11 11 11 11 11
15 16 16 15 14 13 11 12 9 6 8 7 6 6 5 3 4 5 5 4 3 2 2 2 2 2 3 2 4 4 3 2 2 2 3 3 4 5 4 5 6 6 5 5 6 6 7 7 10 13 14 15 16 15 11 10 9 9 10 10 10 10
13 14 15 14 14 13 12 9 8 9 8 6 4 3 4 4 3 3 3 3 1 1 1 2 2 2 2 3 3 3 3 3 3 3 2 3 3 2 3 5 5 5 4 4 5 6 6 6 7 10 11 12 12 14 12 9 9 9 9 9 10 10
12 12 13 14 14 11 9 6 7 8 4 4 3 2 3 2 1 0 1 2 2 2 1 1 1 2 2 3 3 3 3 3 4 3 3 3 2 3 3 3 4 4 4 4 5 5 4 5 7 9 9 10 12 13 12 9 9 9 9 9 9 9
12 14 14 14 11 9 6 8 6 6 5 4 3 1 1 0 0 0 1 1 2 2 2 2 1 1 2 1 1 2 3 3 2 2 2 2 2 3 3 4 4 5 5 5 5 5 5 5 6 8 9 10 11 12 11 7 7 7 7 7 7 7
12 13 14 8 6 7 5 7 4 4 7 1 2 1 0 0 0 1 2 2 3 2 2 2 2 3 3 3 2 1 2 3 3 3 3 1 1 1 1 2 2 4 4 3 3 3 3 1 7 6 5 2 4 6 5 5 4 4 4 4 2 1
8 8 6 7 5 5 5 4 3 4 4 3 1 1 1 1 1 3 3 3 3 3 2 1 1 2 3 3 3 3 1 1 2 2 3 2 3 2 2 3 3 3 3 4 4 1 1 3 7 9 8 8 8 5 1 2 3 3 3 3 2 1
5 4 3 5 5 3 3 3 3 2 2 2 2 2 2 3 3 3 3 4 4 4 4 2 0 3 3 3 3 2 2 1 0 1 2 2 2 2 4 3 4 3 4 4 4 3 2 3 6 9 8 8 8 6 2 1 0 1 1 1 1 0
2 2 1 2 4 4 4 3 1 0 1 2 3 3 4 4 5 5 4 3 3 4 3 2 1 2 3 3 3 2 3 3 3 2 2 3 4 4 4 3 4 4 4 4 4 5 4 3 5 7 7 8 7 5 3 3 1 2 2 1 2 2
1 2 3 3 3 3 3 3 2 2 2 3 3 4 5 4 5 5 4 4 3 2 3 3 3 3 3 3 3 3 3 2 3 3 4 3 4 4 3 4 4 4 4 4 4 4 3 4 4 5 8 7 6 5 3 2 1 2 3 3 3 5
1 1 1 1 2 2 2 3 3 3 3 3 4 4 3 3 3 3 4 4 3 3 3 3 3 4 4 3 3 4 4 3 4 4 4 5 4 5 5 5 4 4 3 3 2 2 3 2 3 5 7 7 6 5 4 2 1 1 1 2 3 3
2 3 4 3 3 3 3 4 6 4 4 5 6 5 5 3 3 3 3 3 4 4 4 4 4 3 3 3 3 4 6 4 4 4 4 4 4 6 6 4 4 5 6 4 4 4 5 4 5 4 5 7 7 5 3 1 1 1 0 1 3 4
3 4 4 4 4 3 3 6 6 5 4 6 5 5 5 5 4 3 3 3 4 4 5 5 6 5 4 5 5 5 7 5 6 5 5 4 5 7 7 7 5 6 6 6 6 6 7 7 7 11 9 11 10 9 8 6 4 5 3 2 3 4
3 4 4 4 4 4 4 4 6 4 6 4 2 3 4 5 6 5 4 4 4 5 6 6 6 6 6 5 5 6 6 7 6 6 6 5 6 6 7 6 5 6 7 7 7 7 7 7 7 9 13 11 13 11 12 11 10 7 3 3 4 4
6 5 5 4 5 5 6 5 5 6 7 5 4 4 4 4 4 5 6 6 6 5 5 5 6 6 6 6 5 6 6 6 6 8 6 6 7 7 7 6 6 6 6 6 6 5 5 6 6 7 9 13 14 13 11 10 11 10 9 4 5 4
5 6 7 5 4 5 5 6 6 8 5 5 6 5 4 4 4 4 5 5 6 6 5 5 5 6 6 6 6 6 5 5 6 7 6 6 6 6 6 5 6 6 6 6 5 5 5 5 6 6 6 7 8 9 12 11 8 6 6 5 6 8
6 6 6 6 3 4 4 5 6 5 3 5 5 5 5 4 4 4 4 5 4 4 4 5 4 4 5 6 5 6 6 5 5 5 6 5 5 5 5 6 6 5 5 5 4 4 4 4 5 6 5 6 5 5 6 7 8 8 6 4 4 4
6 6 5 6 3 4 4 5 6 6 5 5 5 4 4 5 4 4 4 3 2 2 3 3 4 5 5 5 6 6 6 5 4 5 6 5 4 4 5 5 6 6 5 4 3 3 3 4 5 7 8 7 6 5 5 4 5 5 5 5 5 5
6 5 6 6 4 4 5 6 6 6 7 6 6 4 4 4 4 4 5 5 4 3 3 3 4 5 4 4 4 4 5 5 5 4 4 4 3 3 4 5 6 5 4 4 6 6 6 6 7 7 6 6 7 7 7 7 6 6 6 6 8 6
6 7 7 5 4 5 6 6 7 7 7 7 6 5 5 4 3 4 4 4 4 5 4 4 4 5 5 5 4 3 3 5 7 6 5 5 8 11 10 8 6 5 4 5 5 4 4 4 4 7 9 9 11 11 10 9 9 9 8 8 8 3
5 6 7 5 5 6 6 7 7 7 8 8 7 7 6 5 3 3 3 3 4 5 4 4 4 5 4 4 4 5 4 3 3 7 11 11 10 11 12 13 14 14 13 9 6 6 6 6 8 10 10 11 11 11 10 11 10 10 10 8 2 1
6 6 6 5 5 6 6 7 8 8 9 9 9 8 7 7 4 4 4 5 5 5 6 5 5 5 4 4 4 4 4 4 3 1 6 10 11 12 14 15 16 16 15 14 11 8 5 10 12 14 14 14 13 12 12 11 10 9 9 6 2 0
6 6 6 6 6 6 6 7 8 8 9 9 9 8 8 8 7 6 5 5 6 6 6 6 6 6 5 6 5 5 4 4 4 5 6 6 7 9 12 14 15 16 16 15 15 17 14 14 15 18 17 16 16 16 15 13 11 9 12 7 5 5
7 7 7 7 7 6 6 7 7 8 8 7 8 8 8 7 7 7 6 6 6 6 5 6 5 5 5 5 5 5 5 5 5 5 5 6 6 5 6 9 13 15 15 14 16 18 17 17 17 17 16 15 16 16 16 12 6 8 12 10 6 5
7 7 7 7 6 6 6 7 6 7 7 7 7 7 7 7 7 5 6 9 7 4 4 4 4 4 4 4 4 4 4 4 5 5 5 6 6 5 5 6 7 10 14 12 11 15 16 16 17 16 16 16 16 16 16 9 6 8 8 8 7 6
7 7 6 6 6 6 6 6 6 6 7 7 6 6 6 6 6 5 4 4 5 5 4 4 4 5 5 5 5 4 4 4 4 4 4 4 4 4 6 6 7 6 8 13 12 16 16 17 16 14 14 14 15 15 15 9 8 7 7 7 7 8
Wind_Direction
271 263 257 254 265 271 260 265 273 272 268 259 252 258 257 256 254 251 251 241 240 237 234 230 228 227 229 229 230 231 230 231 228 226 227 231 225 222 222 217 216 211 212 211 215 214 215 215 217 214 216 211 217 217 225 224 220 220 222 226 225 227
249 248 258 275 268 264 264 265 272 271 269 273 268 264 262 263 258 255 256 248 240 243 240 238 233 231 228 228 226 227 228 232 229 229 229 227 223 226 221 221 215 214 212 211 214 216 214 213 215 212 214 212 218 218 223 223 217 221 223 228 224 225
253 262 259 255 263 265 278 279 275 276 281 276 273 272 275 265 259 253 251 252 247 246 243 241 235 234 230 231 228 229 231 232 230 230 229 229 226 220 222 219 218 216 215 212 213 214 214 213 213 211 212 213 218 220 224 224 219 221 225 228 231 224
271 273 259 258 278 289 285 280 284 287 285 281 285 281 270 271 271 253 255 250 248 247 246 242 238 235 232 232 230 230 233 231 229 228 226 226 228 213 222 217 218 217 215 214 215 214 215 215 214 211 209 212 215 222 222 224 221 223 226 225 233 226
271 278 283 281 273 274 279 285 284 285 291 299 297 291 283 273 271 273 265 262 255 250 247 243 238 236 236 234 234 232 233 232 232 225 223 227 227 217 219 217 217 217 214 217 217 215 215 215 215 212 210 212 214 219 221 221 219 223 223 225 230 227
261 279 281 284 286 280 277 277 283 286 290 296 299 294 291 292 283 278 274 270 263 261 262 251 245 242 240 238 239 239 238 235 237 226 226 228 223 223 221 217 218 216 216 217 218 217 218 216 216 214 213 213 214 220 222 220 221 222 224 226 229 227
273 260 255 258 262 261 265 274 277 278 287 295 292 289 290 291 291 291 282 274 274 270 260 257 249 243 244 242 244 245 247 249 250 239 231 231 229 229 219 219 215 219 216 218 217 218 218 217 214 215 215 216 217 221 222 222 222 223 225 226 227 226
249 249 245 245 243 247 262 269 270 279 283 283 277 283 294 285 292 290 291 286 280 276 269 267 268 260 258 259 261 262 266 259 249 240 243 232 235 230 224 219 213 216 219 219 220 219 221 218 217 216 216 215 217 220 222 223 224 225 224 226 227 226
285 280 270 242 237 241 253 259 270 265 260 269 272 265 272 282 282 272 276 277 263 264 261 262 255 260 272 272 274 285 285 274 266 257 248 236 234 230 225 222 219 217 218 221 218 221 220 219 217 217 218 218 218 218 220 223 226 227 225 225 224 225
291 296 294 301 294 277 256 245 244 257 271 282 287 286 282 274 266 261 262 273 274 257 253 243 240 252 256 263 271 275 275 276 274 262 262 251 242 238 234 228 223 224 216 224 219 224 218 220 218 217 217 218 216 216 220 220 224 226 226 225 224 223
290 287 292 295 298 296 296 298 301 300 291 273 272 281 272 268 258 248 228 244 258 259 256 253 251 244 254 260 266 267 261 257 257 262 259 252 251 248 244 241 233 228 228 229 227 227 220 220 222 215 211 212 215 215 219 219 221 222 224 225 225 223
279 279 282 288 289 291 292 293 290 290 290 293 282 264 270 258 258 242 226 231 252 267 271 282 289 288 277 260 251 256 270 278 282 283 276 269 262 260 256 251 244 235 230 229 229 228 225 228 225 222 214 210 211 213 219 221 222 222 224 226 226 226
280 282 278 274 275 275 279 279 276 277 282 276 281 285 283 273 266 255 235 232 235 246 288 313 308 329 301 288 274 249 229 234 261 279 277 274 273 269 262 251 249 244 239 232 229 226 228 231 228 223 220 218 214 215 219 220 223 220 223 223 224 225
268 272 273 272 270 271 272 277 276 271 268 273 278 281 300 300 283 280 274 276 275 247 218 217 260 255 253 255 255 251 229 204 200 219 242 265 274 270 283 274 256 254 247 243 239 236 232 233 228 224 225 222 221 217 222 224 224 222 222 222 222 225
263 263 269 274 273 271 269 266 275 268 258 268 270 294 282 271 278 293 305 307 317 323 282 259 235 242 247 230 229 233 233 210 195 204 205 228 231 268 273 260 265 262 262 253 251 247 244 245 242 242 240 238 233 228 224 233 229 225 224 221 221 221
264 266 263 268 274 273 272 280 261 269 275 269 275 260 269 256 270 289 302 315 335 341 334 326 258 258 256 264 265 257 228 201 216 212 203 205 212 218 242 256 258 265 262 247 243 250 255 253 257 247 241 237 235 232 224 230 229 228 226 222 220 220
260 269 277 273 275 285 296 287 258 267 274 257 266 249 213 238 228 301 301 295 305 316 338 349 356 331 306 297 302 307 300 291 274 255 234 191 197 196 220 237 244 247 243 240 230 231 236 243 251 240 238 233 233 237 231 238 238 238 235 229 221 222
252 259 269 294 323 294 277 268 291 282 266 250 241 272 46 54 70 337 318 317 322 327 327 343 357 5 7 13 25 18 327 324 322 311 334 346 308 280 259 281 253 261 261 267 253 232 242 21 41 43 28 343 265 242 223 229 240 245 257 257 268 251
274 284 302 303 307 300 295 292 298 275 279 285 323 3 352 33 29 348 325 313 313 309 304 306 51 45 39 48 67 53 41 341 320 330 358 18 16 25 23 13 19 17 23 29 23 35 63 57 26 30 27 22 18 30 69 161 183 200 214 225 205 181
301 306 314 303 305 299 309 300 287 299 298 320 352 353 1 24 9 345 335 326 325 318 311 306 51 87 82 78 70 50 20 29 322 358 12 51 24 37 35 23 33 34 40 40 41 15 11 1 8 14 15 22 17 10 359 16 91 230 227 268 273 235
288 277 9 360 337 332 336 350 24 16 360 11 5 9 19 11 345 342 336 329 328 323 323 323 4 66 89 79 70 61 63 52 40 360 18 43 67 61 30 31 38 25 23 17 12 10 18 357 0 2 7 15 9 5 13 29 32 330 303 338 327 1
20 18 16 1 322 313 345 32 46 58 48 15 19 32 19 352 341 328 325 323 328 344 356 347 1 26 53 70 66 63 56 64 65 56 71 51 67 69 48 38 45 48 26 2 355 359 357 359 347 347 356 5 9 1 7 32 16 311 314 342 341 322
90 104 51 304 296 331 13 65 64 46 35 38 49 27 344 327 331 342 334 335 345 6 25 25 23 22 24 36 78 90 72 62 80 90 95 105 101 99 80 73 70 73 60 31 12 26 18 7 346 344 353 354 1 4 3 351 356 333 317 309 303 287
41 29 18 360 360 26 65 84 77 47 27 35 28 352 326 336 345 352 1 358 4 7 16 24 25 42 40 28 47 66 64 51 61 63 81 98 105 94 85 84 89 90 79 68 56 53 47 47 41 17 15 10 352 346 309 273 270 291 308 268 250 260
63 45 22 359 8 27 61 93 87 79 66 47 1 338 337 335 341 5 20 20 18 18 19 20 22 20 27 43 41 56 60 50 56 52 58 67 70 70 68 62 63 69 64 57 45 39 37 30 32 30 26 19 18 8 3 339 323 319 321 284 277 273
95 75 44 29 24 27 26 68 92 86 78 48 351 354 0 3 355 352 17 30 25 22 22 18 19 22 25 25 36 60 62 53 54 53 44 41 51 59 60 49 50 56 55 51 41 36 34 30 32 23 22 18 16 19 19 12 2 340 310 306 296 310
124 109 77 54 47 40 41 32 64 61 48 6 1 14 28 25 17 7 14 16 17 24 17 21 24 22 23 23 32 54 57 60 59 63 38 46 48 49 58 48 47 56 56 53 46 37 35 35 37 33 22 16 7 5 8 13 9 358 350 329 316 315
118 108 100 73 59 64 60 57 59 61 29 359 6 7 21 32 36 37 31 20 16 10 8 26 29 27 21 26 32 40 36 51 56 67 50 51 49 50 58 55 58 60 56 55 36 29 27 32 43 33 27 25 11 5 357 356 357 344 322 298 283 291
118 112 105 95 65 73 66 70 65 65 48 31 17 14 19 32 44 49 40 36 23 10 12 29 28 27 28 26 26 35 35 29 36 52 55 49 47 49 50 48 53 57 59 60 49 28 34 50 44 33 24 25 20 12 1 355 348 341 336 323 312 302
129 123 109 96 76 58 59 53 47 32 31 39 33 32 37 36 31 37 39 34 34 35 22 42 37 43 45 34 29 32 30 28 24 50 55 47 35 51 51 55 52 49 46 48 49 53 59 46 41 26 15 9 14 9 10 359 346 341 329 325 318 317
122 114 100 89 68 65 59 52 40 21 14 11 10 16 71 76 44 18 14 3 354 2 6 33 44 47 52 49 45 44 42 32 16 33 66 58 43 36 52 64 56 44 32 39 33 26 26 25 21 13 355 3 9 10 360 358 358 344 337 320 314 316
105 106 98 86 69 63 60 46 35 26 16 8 6 8 39 41 62 59 36 14 2 352 355 9 26 34 36 35 32 42 51 45 52 44 42 35 36 53 59 65 59 41 22 35 35 39 37 17 341 336 360 11 10 4 357 345 339 335 319 308 314 310
107 107 102 92 77 65 57 49 31 22 13 3 357 8 24 33 54 38 23 11 16 357 344 358 13 21 37 39 29 17 19 24 52 61 46 35 33 44 48 46 42 38 36 32 14 4 14 5 8 15 16 10 5 357 352 345 338 331 325 317 330 28
103 96 91 83 72 64 57 49 32 22 9 3 355 355 7 14 30 44 23 11 1 355 357 356 4 10 18 25 28 22 13 7 354 20 65 46 33 41 43 38 35 30 23 19 19 21 12 20 17 17 11 5 358 356 354 351 345 341 351 5 68 74
94 84 80 75 64 61 53 51 33 21 14 5 359 357 12 16 21 27 28 21 7 357 359 359 0 3 7 11 11 13 13 13 10 358 344 18 43 53 51 43 38 28 18 13 23 29 25 19 14 10 6 2 2 2 2 358 355 359 18 23 35 25
93 92 91 86 79 74 62 52 32 21 14 6 3 7 14 14 16 17 23 20 12 7 359 358 357 358 2 7 9 10 10 13 11 358 358 352 355 22 47 50 38 27 19 16 22 20 15 14 12 7 6 7 8 5 2 359 1 24 29 31 27 19
104 98 99 99 94 87 75 59 33 18 12 10 11 18 17 17 16 15 18 20 15 5 358 352 355 357 358 6 8 10 9 11 5 12 13 8 5 1 5 2 16 20 20 17 17 13 10 11 7 7 7 9 7 7 7 5 20 19 13 18 20 18
105 98 99 95 92 86 79 57 33 20 17 10 12 28 26 16 11 13 16 7 3 354 353 360 1 359 2 3 5 10 10 9 12 20 20 16 9 10 7 10 7 6 12 15 15 12 7 6 4 5 6 9 9 11 12 17 17 14 12 9 7 8